sat.trackr.live / text

‹ back to catalog

STARLINK-34175

NORAD 64169 · 2025-112Z

PAYLOAD ACTIVE UNKNOWN

§ Identity

Operator
Country
US
Launch date
2025-05-27
Launch site
AFWTR
Launch vehicle
Mass (kg)
RCS (m²)

Purposes: comms

External: N2YO · Heavens-Above · Gunter

§ Orbital elements

Epoch: 2026-05-25T02:38:09.510720Z

Period
95.64 min
Inclination
97.4513°
Eccentricity
0.0002400
Mean motion
15.05661965 rev/d
Perigee alt
547.8 km
Apogee alt
551.1 km
Semi-major
6,927.6 km
B*
3.6868e-4
RAAN
196.4259°
Arg perigee
134.6564°
Mean anomaly
225.4859°
Rev number
5,480

§ Raw data

STARLINK-341751 64169U 25112Z   26145.10983230  .00005267  00000+0  36868-3 0  99942 64169  97.4513 196.4259 0002400 134.6564 225.4859 15.05661965 54804

JSON: /api/v1/satellites/64169 · /tle

For live sub-satellite position, see the globe view (requires WebGL).

§ Visibility from observer

Set your observer location to see the next 7 days of passes ≥ 10°. The values pass through the URL so the page stays shareable.

No JS? Fill the form by hand. The geolocation button needs JavaScript.